THORAD DELTA 1 DEB, 8560

Orbit data source: Space-Track

THORAD DELTA 1 DEB, 8560 is space debris in SSO originally from a launch on Fri, 15 Nov 1974 UTC launched from the Air Force Western Test Range (AFWTR). Debris objects in space refer to the collection of defunct objects orbiting the Earth. Examples of debris include non-operational satellites, rocket bodies, and fragments generated from explosions, collisions, or faulty payload assembly.

Loading next visibility...
Identifier
8560, 1974-089CX
Orbit
SSO
Country
Flag of USUS
Related business
Manufacturer
Unknown
Mission
Spacecraft
Bus & Motor
Unknown
Mass
Unknown
Launch date (UTC)
1974-11-15 (51 years ago)
Launch vehicle
Unknown
Launch site
Air Force Western Test Range (AFWTR)
Object type
Payload
Rocket body
Debris
Shape & HBR
Unknown shape, 0.1 m
Radar Cross Section
Small (<0.1 m²)

Expand to show TLE details & history
Last TLE update: 20 hours ago

TLE from 20 hours ago
0 THORAD DELTA 1 DEB
1 08560U 74089CX  25348.67781626  .00000670  00000-0  95004-3 0  9996
2 08560 102.1114 248.0689 0403672  15.3337 345.9605 13.32580067469187
Epoch: 2025-12-14T16:16Z
TLE epoch observation values (Epoch: 2025-12-14T16:16:03.324Z)
Latitude
-0.00009°
Longitude
-79.53222°
Altitude
846.13 km
Speed
7.573 km/s
True Right ascension
16h 32m 16s
True Declination
0° 00' 00"
Sunlit
Object was in daylight at epoch
Visualization orbit readout
Latitude
Unknown
Longitude
Unknown
Altitude
Unknown
Speed
Unknown
Apparent Right ascension
Unknown
Apparent Declination
Unknown
Sunlit
N/A
Visualization observer readout
Local Sidereal Time
10:39:57
Azimuth
Unknown
Elevation
Unknown
Doppler factor
Unknown
Orbital elements
Apogee altitude
1,437.767 km
Perigee altitude
831.239 km
Semi-major axis
7,512.64 km
Eccentricity
0.04037
Inclination
102.1114°
RAAN
248.0689°
Arg. of periapsis
15.3337°
True anomaly
344.78079°
Mean anomaly
345.9605°
Eccentric anomaly
345.37658°
Mean motion
3.33315 °/min
Orbital period
108.01 mins
BSTAR
0.00095004
Loading maneuver chart data...
Computing Atmospheric mass density...
Loading historical data...
Loading historical data...
Loading historical data...
Loading historical data...
Loading historical data...
Loading historical data...
Loading historical data...

Documentation

Showing up to 5 results
|